Location: Peebles
(55.6412°N, 3.1714°W)
Time: 17:26:20
(UTC+01:00)

USA 238 DEB - Pass Details

Date: 26 January 2022
Orbit: 969 x 1243 km, 63.4° (Epoch: 04 May)

Event Time Altitude Azimuth Distance (km) Brightness Sun altitude
Rises 17:25:15 0° 238° (WSW) 3,715 8.8 -7.2°
Reaches altitude 10° 17:27:47 10° 240° (WSW) 2,794 7.6 -7.5°
Maximum altitude 17:34:23 76° 326° (NW) 1,095 3.8 -8.4°
Drops below altitude 10° 17:41:28 10° 53° (NE) 2,991 5.4 -9.3°
Enters shadow 17:41:35 10° 53° (NE) 3,034 5.5 -9.3°
